• In Czech Republic
  • List of Countries
  • For 7 days
  • Water Temperature
  • Satellite Maps
  • Weather Map
  • Weather Widgets
  • user-avatar
    Login

    Hourly Weather Alcoi

    Today, 21 September, Friday

    Time Temperature Precipitation Wind Pressure Humidity
    00:00 +24°C° 0 mm 2 mps 717 mmHg 76%
    01:00 +24°C° 0 mm 2 mps 717 mmHg 77%
    02:00 +23°C° 0 mm 2 mps 716 mmHg 78%
    03:00 +23°C° 0 mm 2 mps 716 mmHg 79%
    04:00 +23°C° 0 mm 2 mps 716 mmHg 78%
    05:00 +23°C° 0 mm 2 mps 716 mmHg 78%
    06:00 +21°C° 0 mm 2 mps 716 mmHg 78%
    07:00 +24°C° 0 mm 2 mps 717 mmHg 67%
    08:00 +26°C° 0 mm 2 mps 717 mmHg 57%
    09:00 +28°C° 0 mm 2 mps 718 mmHg 47%
    10:00 +29°C° 0 mm 3 mps 718 mmHg 41%
    11:00 +31°C° 0 mm 3 mps 718 mmHg 35%
    12:00 +33°C° 0 mm 3 mps 718 mmHg 29%
    13:00 +33°C° 0 mm 3 mps 717 mmHg 29%
    14:00 +34°C° 0 mm 4 mps 717 mmHg 28%
    15:00 +34°C° 0 mm 4 mps 717 mmHg 27%
    16:00 +33°C° 0 mm 4 mps 717 mmHg 34%
    17:00 +30°C° 0 mm 4 mps 717 mmHg 41%
    18:00 +29°C° 0 mm 4 mps 717 mmHg 48%
    19:00 +28°C° 0 mm 3 mps 717 mmHg 54%
    20:00 +27°C° 0 mm 3 mps 718 mmHg 60%
    21:00 +26°C° 0 mm 2 mps 718 mmHg 65%
    22:00 +26°C° 0 mm 2 mps 719 mmHg 67%
    23:00 +25°C° 0 mm 2 mps 719 mmHg 68%

    Tomorrow, 22 September, Saturday

    Time Temperature Precipitation Wind Pressure Humidity
    00:00 +25°C° 0 mm 2 mps 719 mmHg 70%
    01:00 +24°C° 0 mm 2 mps 719 mmHg 70%
    02:00 +24°C° 0 mm 1 mps 719 mmHg 71%
    03:00 +24°C° 0 mm 1 mps 719 mmHg 71%
    04:00 +23°C° 0 mm 1 mps 719 mmHg 71%
    05:00 +23°C° 0 mm 1 mps 719 mmHg 71%
    06:00 +23°C° 0 mm 1 mps 719 mmHg 70%
    07:00 +24°C° 0 mm 1 mps 720 mmHg 64%
    08:00 +26°C° 0 mm 1 mps 720 mmHg 57%
    09:00 +27°C° 0 mm 1 mps 721 mmHg 50%
    10:00 +28°C° 0 mm 2 mps 721 mmHg 46%
    11:00 +29°C° 0 mm 2 mps 721 mmHg 42%
    12:00 +31°C° 0 mm 3 mps 721 mmHg 38%
    13:00 +31°C° 0 mm 3 mps 721 mmHg 37%
    14:00 +31°C° 0 mm 3 mps 720 mmHg 36%
    15:00 +31°C° 0 mm 3 mps 720 mmHg 34%
    16:00 +30°C° 0 mm 3 mps 720 mmHg 37%
    17:00 +30°C° 0 mm 3 mps 720 mmHg 40%
    18:00 +29°C° 0 mm 3 mps 720 mmHg 43%
    19:00 +28°C° 0 mm 3 mps 720 mmHg 46%
    20:00 +27°C° 0 mm 3 mps 721 mmHg 49%
    21:00 +26°C° 0 mm 3 mps 721 mmHg 53%
    22:00 +25°C° 0 mm 2 mps 721 mmHg 55%
    23:00 +25°C° 0 mm 2 mps 721 mmHg 57%

    Day after tomorrow, 23 September, Sunday

    Time Temperature Precipitation Wind Pressure Humidity
    00:00 +24°C° 0 mm 2 mps 720 mmHg 60%
    01:00 +24°C° 0 mm 1 mps 720 mmHg 59%
    02:00 +24°C° 0 mm 1 mps 720 mmHg 59%
    03:00 +23°C° 0 mm 1 mps 720 mmHg 59%
    04:00 +23°C° 0 mm 1 mps 720 mmHg 58%
    05:00 +23°C° 0 mm 1 mps 720 mmHg 58%
    06:00 +23°C° 0 mm 1 mps 720 mmHg 57%
    07:00 +25°C° 0 mm 1 mps 720 mmHg 51%
    08:00 +27°C° 0 mm 1 mps 721 mmHg 44%
    09:00 +29°C° 0 mm 1 mps 721 mmHg 37%
    10:00 +30°C° 0 mm 2 mps 721 mmHg 34%
    11:00 +31°C° 0 mm 3 mps 721 mmHg 31%
    12:00 +33°C° 0 mm 3 mps 721 mmHg 28%
    13:00 +33°C° 0 mm 3 mps 721 mmHg 27%
    14:00 +33°C° 0 mm 4 mps 720 mmHg 27%
    15:00 +33°C° 0 mm 4 mps 720 mmHg 26%
    16:00 +31°C° 0 mm 3 mps 720 mmHg 29%
    17:00 +30°C° 0 mm 3 mps 720 mmHg 31%
    18:00 +29°C° 0 mm 3 mps 719 mmHg 34%
    19:00 +28°C° 0 mm 3 mps 720 mmHg 38%
    20:00 +27°C° 0 mm 3 mps 720 mmHg 41%
    21:00 +26°C° 0 mm 2 mps 720 mmHg 44%
    22:00 +25°C° 0 mm 2 mps 720 mmHg 46%
    23:00 +25°C° 0 mm 2 mps 720 mmHg 47%

    24 September, Monday

    Time Temperature Precipitation Wind Pressure Humidity
    00:00 +24°C° 0 mm 2 mps 719 mmHg 48%
    01:00 +24°C° 0 mm 1 mps 719 mmHg 47%
    02:00 +24°C° 0 mm 1 mps 719 mmHg 45%
    03:00 +24°C° 0 mm 1 mps 719 mmHg 44%
    04:00 +23°C° 0 mm 1 mps 719 mmHg 43%
    05:00 +23°C° 0 mm 1 mps 719 mmHg 43%
    06:00 +23°C° 0 mm 1 mps 719 mmHg 42%
    07:00 +25°C° 0 mm 1 mps 719 mmHg 37%
    08:00 +27°C° 0 mm 1 mps 719 mmHg 32%
    09:00 +29°C° 0 mm 1 mps 720 mmHg 27%
    10:00 +30°C° 0 mm 2 mps 720 mmHg 27%
    11:00 +31°C° 0 mm 2 mps 720 mmHg 27%
    12:00 +33°C° 0 mm 3 mps 720 mmHg 27%
    13:00 +33°C° 0 mm 3 mps 719 mmHg 27%
    14:00 +33°C° 0 mm 4 mps 719 mmHg 28%
    15:00 +33°C° 0 mm 4 mps 719 mmHg 29%
    16:00 +32°C° 0 mm 4 mps 719 mmHg 34%
    17:00 +30°C° 0 mm 3 mps 718 mmHg 39%
    18:00 +28°C° 0 mm 3 mps 718 mmHg 43%
    19:00 +27°C° 0 mm 3 mps 719 mmHg 48%
    20:00 +26°C° 0 mm 2 mps 719 mmHg 52%
    21:00 +26°C° 0 mm 2 mps 719 mmHg 57%
    22:00 +25°C° 0 mm 1 mps 719 mmHg 59%
    23:00 +25°C° 0 mm 1 mps 719 mmHg 62%

    25 September, Tuesday

    Time Temperature Precipitation Wind Pressure Humidity
    00:00 +24°C° 0 mm 1 mps 719 mmHg 65%
    01:00 +24°C° 0 mm 1 mps 719 mmHg 65%
    02:00 +23°C° 0 mm 1 mps 719 mmHg 66%
    03:00 +23°C° 0 mm 1 mps 718 mmHg 67%
    04:00 +23°C° 0 mm 2 mps 718 mmHg 68%
    05:00 +21°C° 0 mm 2 mps 718 mmHg 69%
    06:00 +21°C° 0 mm 2 mps 719 mmHg 70%
    07:00 +23°C° 0 mm 2 mps 719 mmHg 65%
    08:00 +25°C° 0 mm 3 mps 719 mmHg 61%
    09:00 +26°C° 0 mm 3 mps 719 mmHg 57%
    10:00 +27°C° 0 mm 3 mps 720 mmHg 54%
    11:00 +28°C° 0 mm 4 mps 720 mmHg 51%
    12:00 +29°C° 0 mm 4 mps 720 mmHg 48%
    13:00 +29°C° 0 mm 4 mps 719 mmHg 51%
    14:00 +29°C° 0 mm 5 mps 719 mmHg 53%
    15:00 +29°C° 0 mm 5 mps 719 mmHg 55%
    16:00 +28°C° 0.1 mm 5 mps 719 mmHg 61%
    17:00 +26°C° 0.1 mm 5 mps 719 mmHg 68%
    18:00 +25°C° 0.1 mm 5 mps 720 mmHg 75%
    19:00 +23°C° 0 mm 5 mps 720 mmHg 78%
    20:00 +23°C° 0 mm 5 mps 721 mmHg 80%
    21:00 +22°C° 0 mm 5 mps 721 mmHg 83%
    22:00 +22°C° 0.2 mm 6 mps 721 mmHg 83%
    23:00 +21°C° 0.2 mm 6 mps 721 mmHg 84%

    26 September, Wednesday

    Time Temperature Precipitation Wind Pressure Humidity
    00:00 +21°C° 0.2 mm 6 mps 721 mmHg 85%
    01:00 +21°C° 0.3 mm 7 mps 721 mmHg 85%
    02:00 +21°C° 0.3 mm 8 mps 722 mmHg 85%
    03:00 +20°C° 0.3 mm 8 mps 722 mmHg 85%
    04:00 +19°C° 0.2 mm 9 mps 722 mmHg 83%
    05:00 +19°C° 0.2 mm 9 mps 722 mmHg 81%
    06:00 +19°C° 0.2 mm 9 mps 722 mmHg 79%
    07:00 +19°C° 0.3 mm 9 mps 723 mmHg 76%
    08:00 +21°C° 0.3 mm 9 mps 723 mmHg 74%
    09:00 +21°C° 0.3 mm 9 mps 724 mmHg 71%
    10:00 +21°C° 0.1 mm 9 mps 724 mmHg 71%
    11:00 +21°C° 0.1 mm 10 mps 724 mmHg 70%
    12:00 +21°C° 0.1 mm 10 mps 724 mmHg 70%
    13:00 +21°C° 0 mm 10 mps 724 mmHg 65%
    14:00 +22°C° 0 mm 10 mps 724 mmHg 59%
    15:00 +22°C° 0 mm 10 mps 724 mmHg 53%
    16:00 +21°C° 0 mm 9 mps 724 mmHg 58%
    17:00 +19°C° 0 mm 9 mps 724 mmHg 62%
    18:00 +18°C° 0 mm 9 mps 724 mmHg 67%
    19:00 +18°C° 0 mm 8 mps 725 mmHg 69%
    20:00 +17°C° 0 mm 8 mps 725 mmHg 71%
    21:00 +17°C° 0 mm 7 mps 725 mmHg 74%
    22:00 +16°C° 0 mm 7 mps 725 mmHg 76%
    23:00 +16°C° 0 mm 7 mps 725 mmHg 78%
    Show more